Location: Krasnoyarskiy Pitomnik
(51.1333°N, 71.6167°E)
Time: 09:30:37
(UTC+00:00)

Altair - Pass Details

Date: 16 April 2024
Orbit: 1501 x 1682 km, 47.2° (Epoch: 17 May)

Event Time Altitude Azimuth Distance (km) Brightness Sun altitude
Rises 13:10:44 0° 184° (S) 4,910 10.1 8.5°
Reaches altitude 10° 13:15:11 10° 168° (SSE) 3,908 9.5 7.8°
Maximum altitude 13:21:23 19° 129° (SE) 3,239 8.8 6.8°
Drops below altitude 10° 13:27:28 10° 90° (E) 3,843 9.0 5.9°
Sets 13:31:45 0° 74° (ENE) 4,799 9.5 5.2°
